{"data":{"norad_id":64608,"intl_designator":"2025-137Q","name":"STARLINK-34519","alt_names":[],"object_type":"PAYLOAD","status":"ACTIVE","operator":null,"country":"US","launch_date":"2025-06-25","launch_site_code":"AFETR","launch_vehicle":null,"mission":null,"orbit_class":"UNKNOWN","rcs_meters":null,"size_class":null,"mass_kg":null,"dimensions":null,"purposes":["comms"],"wikipedia_slug":null,"has_3d_model":false,"image_url":null,"decayed_at":null,"tle_current":{"epoch":"2026-09-20T06:21:41.463072Z","epoch_age_seconds":151960,"freshness":"FRESH","line1":"1 64608U 25137Q   26263.26506323  .00018980  00000+0  57129-3 0  9990","line2":"2 64608  53.1572 148.7320 0001262  96.7445 263.3701 15.34409107 70564","mean_motion":15.34409107,"eccentricity":0.0001262,"inclination_deg":53.1572,"raan_deg":148.732,"arg_perigee_deg":96.7445,"mean_anomaly_deg":263.3701,"bstar":0.00057129,"rev_number":7056,"period_min":93.847201077646,"perigee_km":461.81286179541,"apogee_km":463.53948304013,"semimajor_km":6840.8131724178,"source":"CELESTRAK","updated_at":"2026-09-21T09:00:35.393849Z"}}}